Regional Weather Roundup
Issued by NWS

Home | Current Version | Previous Version | Text Only | Print | Product List | Glossary On
Versions: 1 2 3 4 5 6 7 8 9 10 11 12 13 14 15 16 17 18 19 20 21 22 23 24 25 26 27 28 29 30 31 32 33 34 35 36 37 38 39 40 41 42 43 44 45 46 47 48 49 50
000
ASUS42 KKEY 192010
RWRKEY

FLORIDA REGIONAL WEATHER ROUNDUP FOR THE FLORIDA KEYS
NATIONAL WEATHER SERVICE KEY WEST FLORIDA
400 PM EDT FRI SEP 19 2014

...SOUTH FLORIDA AND THE KEYS...

CITY           SKY/WX    TMP DP  RH WIND       PRES   REMARKS
FORT MYERS     CLOUDY    77  73  87 SE3       29.90F
SW REGIONAL AP CLOUDY    78  62  57 VRB5      29.91F
NAPLES         CLOUDY    80  74  81 SE3       29.90F
MIAMI          LGT RAIN  79  74  84 SE8       29.93S
WEST KENDALL   CLOUDY    82  75  79 CALM      29.92F
HOMESTEAD      CLOUDY    82  76  83 E3        29.92F
MARATHON       CLOUDY    85  76  74 S3        29.91F HX  94
BOCA CHICA NAS CLOUDY    86  76  71 S7        29.90F HX  96
KEY WEST INTL  CLOUDY    86  75  69 SW7       29.90F HX  95

...INTERNATIONAL WEATHER...

CITY           SKY/WX    TMP DP  RH WIND       PRES   REMARKS
NASSAU BAHAMAS LGT RAIN  84  73  70 NE7       29.93S HX  91
CANCUN MEXICO  PTSUNNY   88  75  66 SE14      29.98R HX  97
COZUMEL MEXICO MOSUNNY   86  77  74 SE9       29.87F HX  97

ADJACENT COASTAL WATERS...

STATION/POSITION TIME  SKY/WX   TEMP    WIND        PRES    WAVE
                                AIR SEA DIR/SP/G            HT/PER
                 (UTC)          (F)     (DEG/KT/KT) (MB)    (FT/S)
PULASKI SHOAL LI 2000            85     170/  5/  5 1012.1F
SAND KEY         1939            83     190/  5/  7 1012.6F
SOMBRERO KEY     2000            84     230/  3/  4 1013.5F
LONG KEY         2000            84 86  230/  2/  3 1013.6F
MOLASSES REEF    2000            84 85  280/  5/  8 1012.9F
FOWEY ROCKS      2000            79 85  170/  5/  5 1013.5F
Buoy 42080       NOT AVBL

$$


USA.gov is the U.S. government's official web portal to all federal, state and local government web resources and services.